User: anonymous   Login
Location: Unspecified
(0.0000°N, 0.0000°E)
Time: 23:29:24
(UTC+02:00)
Language:

Iridium 15 - Orbit

View from above orbital plane
View from above orbital plane
View from above satellite
View from above satellite

Ground track
Ground track

The orbit data is extracted from the following two-line orbital elements,

1 24869U 97034A   16177.48542235  .00000016  00000-0 -12807-5 0  9998
2 24869  86.3967 171.2157 0002504  82.6658 277.4822 14.34254801992789
Epoch (UTC): 25 June 2016 11:39:00
Eccentricity: 0.0002504
inclination: 86.3967°
perigee height: 776 km
apogee height: 779 km
right ascension of ascending node: 171.2157°
argument of perigee: 82.6658°
revolutions per day: 14.34254801
mean anomaly at epoch: 277.4822°
orbit number at epoch: 99278

The dashed part of the orbit path shows where the satellite is in the earth's shadow,  

DLR